Home   Weather   Albuquerque   Past weeks
Flag for USA

Past Weather in Albuquerque, New Mexico, USA — Yesterday and Last 2 Weeks

Now
59 °F

Sunny.


Feels Like: 56 °F
Forecast: 74 / 46 °F
Wind: 14 mph from Southwest

Location: Albuquerque International Airport

Current Time: Apr 2, 2020 at 10:45:52 am

Latest Report: Apr 2, 2020 at 9:52 am


Visibility: 10 mi

Pressure: 29.76 "Hg (24.88 "Hg at 1510m altitude)

Humidity: 25%

Dew Point: 23 °F

Location of AlbuquerqueLocation

Past Weather in Albuquerque — Graph

°F

Albuquerque Temperature Yesterday

Maximum temperature yesterday: 72 °F (at 5:52 pm)
Minimum temperature yesterday: 50 °F (at 6:52 am)
Average temperature yesterday: 62 °F

High & Low Weather Summary for the Past Weeks

 TemperatureHumidityPressure
High74 °F (Mar 25, 4:52 pm)83% (Mar 19, 12:19 am)30.24 "Hg (Mar 19, 12:19 am)
Low32 °F (Mar 28, 5:52 am)10% (Mar 25, 3:52 pm)29.50 "Hg (Mar 27, 2:52 pm)
Average51 °F37%29.91 "Hg
* Reported Mar 18 8:52 am — Apr 2 8:52 am, Albuquerque. Weather by CustomWeather, © 2020

Note: Actual official high and low records may vary slightly from our data, if they occured in-between our weather recording intervals... More about our weather records

Albuquerque Weather History for the Previous 24 Hours

Scroll right to see more
 ConditionsComfort  
Time TempWeatherWind HumidityBarometerVisibility
8:52 am
Thu, Apr 2
54 °FSunny.6 mph27%29.77 "Hg10 mi
7:52 am50 °FSunny.6 mph29%29.77 "Hg10 mi
6:52 am47 °FSunny.6 mph33%29.74 "Hg10 mi
5:52 am50 °FPassing clouds.No wind29%29.71 "Hg10 mi
4:52 am50 °FMostly cloudy.5 mph29%29.71 "Hg10 mi
3:52 am54 °FOvercast.7 mph25%29.69 "Hg10 mi
2:52 am52 °FOvercast.6 mph28%29.70 "Hg10 mi
1:52 am56 °FOvercast.10 mph24%29.68 "Hg10 mi
12:52 am59 °FPassing clouds.9 mph20%29.69 "Hg10 mi
11:52 pm
Wed, Apr 1
59 °FPassing clouds.8 mph18%29.69 "Hg10 mi
10:52 pm61 °FPassing clouds.8 mph17%29.66 "Hg10 mi
9:52 pm60 °FPassing clouds.6 mph18%29.66 "Hg10 mi
8:52 pm62 °FPartly cloudy.8 mph17%29.64 "Hg10 mi
7:52 pm66 °FPartly cloudy.9 mph14%29.62 "Hg10 mi
6:52 pm70 °FBroken clouds.16 mph12%29.61 "Hg10 mi
5:52 pm72 °FBroken clouds.21 mph12%29.59 "Hg10 mi
5:02 pm70 °FStrong thunderstorms. Partly sunny.24 mph12%29.78 "Hg10 mi
3:52 pm71 °FPartly sunny.17 mph13%29.59 "Hg10 mi
2:52 pm70 °FPartly sunny.18 mph14%29.61 "Hg10 mi
1:52 pm71 °FBroken clouds.12 mph13%29.61 "Hg10 mi
12:52 pm68 °FScattered clouds.12 mph14%29.66 "Hg10 mi
11:52 am65 °FScattered clouds.9 mph17%29.71 "Hg10 mi
10:52 am64 °FPartly sunny.10 mph18%29.73 "Hg10 mi
Weather by CustomWeather, © 2020

See weather overview

Advertising